Regional Weather Roundup
Issued by NWS

Home | Current Version | Previous Version | Text Only | Print | Product List | Glossary On
Versions: 1 2 3 4 5 6 7 8 9 10 11 12 13 14 15 16 17 18 19 20 21 22 23 24 25 26 27 28 29 30 31 32 33 34 35 36 37 38 39 40 41 42 43 44 45 46 47 48 49 50
000
ASUS45 KABQ 241910
RWRNM
NEW MEXICO REGIONAL WEATHER ROUNDUP
NATIONAL WEATHER SERVICE ALBUQUERQUE NM
100 PM MDT SUN JUL 24 2016

NOTE: "FAIR" MEANS FEW OR NO CLOUDS BELOW 12,000 FEET AGL WITH NO
       SIGNIFICANT WEATHER OR OBSTRUCTIONS TO VISION.

      THIS PRODUCT IS RELEASED AS TWO VERSIONS.  ONE VERSION NEAR
      THE TOP OF THE HOUR CONTAINING PRELIMINARY DATA FROM ALBUQUERQUE
      AND OTHER STATIONS.  A FINAL VERSION WITH ADDITIONAL DATA IS
      ISSUED ABOUT 10 MINUTES AFTER THE HOUR.

NMZ501-503-504-510>518-242000-
NORTHWEST PLATEAU/NORTHCENTRAL MOUNTAINS

CITY           SKY/WX    TMP DP  RH WIND       PRES   REMARKS
FARMINGTON     FAIR      92  38  15 CALM      30.14F
LOS ALAMOS       N/A     85  40  20 NW7       30.31F
SANTA FE       FAIR      93  42  17 NE8       30.22F
TAOS           FAIR      84  43  23 CALM      30.30F
ANGEL FIRE     FAIR      76  44  31 SW3       30.41F

$$
NMZ402-403-502-505>509-242000-
WESTCENTRAL MOUNTAINS/SOUTHWEST MOUNTAINS

CITY           SKY/WX    TMP DP  RH WIND       PRES   REMARKS
GALLUP         FAIR      90  42  18 W5        30.23F
GRANTS         FAIR      90  41  18 S7        30.26F
SILVER CITY    FAIR      93  46  19 NW14G22   30.14F

$$
NMZ407-409-411-412-242000-
SOUTHERN DESERTS

CITY           SKY/WX    TMP DP  RH WIND       PRES   REMARKS
LORDSBURG      FAIR      95  52  23 NW17G23   30.06F
DEMING         FAIR      99  46  16 NW8       30.03F HX  95
LAS CRUCES     FAIR      97  41  14 E5        30.06F
HOLLOMAN AFB   FAIR     100  44  15 S9        29.99F HX  95
ALAMOGORDO     FAIR     100  45  15 SE14      30.02F HX  96
T OR C         FAIR      96  44  16 CALM      30.06F

$$
NMZ519>523-242000-
CENTRAL VALLEYS/CENTRAL HIGHLANDS

CITY           SKY/WX    TMP DP  RH WIND       PRES   REMARKS
ALBUQUERQUE    FAIR      93  43  17 S7        30.13F
DOUBLE EAGLE   MOSUNNY   93  46  20 VRB7      30.18F
MORIARTY ARPT  FAIR      93  37  14 S10G16    30.22F
CLINES CORNERS FAIR      87  46  24 SE10G23   30.30F
BELEN          FAIR      94  41  15 NW5       30.12F
SOCORRO        FAIR      97  40  14 NW7       30.08F

$$
NMZ524>526-539-540-242000-
SOUTHCENTRAL MOUNTAINS

CITY           SKY/WX    TMP DP  RH WIND       PRES   REMARKS
RUIDOSO          N/A     86  41  20 SE18      30.29F

$$
NMZ527>531-242000-
NORTHEAST HIGHLANDS/NORTHEAST PLAINS

CITY           SKY/WX    TMP DP  RH WIND       PRES   REMARKS
LAS VEGAS      FAIR      88  43  20 S12G17    30.28F
RATON          FAIR      90  46  21 S10G22    30.22F THUNDER
CLAYTON        CLOUDY    86  53  32 SE9       30.17F

$$
NMZ532>537-242000-
EASTCENTRAL PLAINS

CITY           SKY/WX    TMP DP  RH WIND       PRES   REMARKS
TUCUMCARI      FAIR      97  50  20 VRB7      30.06F
CANNON AFB     FAIR      94  54  26 SE15      30.11F
CLOVIS AIRPORT FAIR      93  57  29 SE9G21    30.12F

$$
NMZ028-029-538-242000-
SOUTHEAST PLAINS

CITY           SKY/WX    TMP DP  RH WIND       PRES   REMARKS
ROSWELL        FAIR      99  52  20 SE12G21   30.02F HX  96
ARTESIA        FAIR      97  54  23 E9G21     30.02F
CARLSBAD       FAIR      98  54  22 E10G18    29.99F HX  96
HOBBS          MOSUNNY   95  50  21 SE15G25   30.06F


$$




USA.gov is the U.S. government's official web portal to all federal, state and local government web resources and services.